ARIANE 40+ R/B

Last updated on Sun Aug 09 2026 00:02:09 GMT+0000 (Coordinated Universal Time)

1 23561U 95021B 26220.17206454 .00000095 00000+0 43924-4 0 9994 2 23561 98.4380 289.4882 0007641 55.3628 358.9345 14.39858452641040
UTC large
Height (km)
Speed (km/s)
/
Latitude / Longitude
Inclination (degrees)
Orbital Period (minutes)
Azimuth
Elevation
Range (km)
Doppler Factor

Next 0 passes for location: London (51.5072 / 0.1276)

No passes found over London.
ARIANE 40+ R/B